# Land Stadt Wetter Temperatur Luftdruck Luftfeuchtigkeit Sichtweite Windgeschwindigkeit Windrichtung Ortszeit
1 cl Santiago Fog 10 1014 100 1200 1 282 02.08.2018 14:23
2 in Jagatsukh Clouds 9 1017 96 1225 10 222 02.08.2018 14:22
3 ar Esquel Mist 2 1015 100 3800 7 280 02.08.2018 14:22
4 in Mumbai Smoke 33 1007 55 4000 20 300 02.08.2018 14:22
5 in Nagpur Haze 38 1008 12 4000 4 360 02.08.2018 14:21
6 id Jakarta Clouds 31 1008 55 6000 19 30 02.08.2018 14:22
7 de Oberstdorf Rain 11 1019 65 7563 2 291 02.08.2018 14:21
8 us Death Valley Clouds 10 1006 25 10000 6 325 02.08.2018 14:22
9 pt Lissabon Clouds 18 1015 55 10000 7 0 02.08.2018 14:22
10 za Kapstadt Clear 23 1015 64 10000 9 290 02.08.2018 14:22
11 gr Athen Clouds 21 1021 28 10000 19 180 02.08.2018 14:22
12 no Hammerfest Snow 1 1007 75 10000 6 0 02.08.2018 14:22
13 is Reykjavik Rain 7 1019 76 10000 17 90 02.08.2018 14:22
14 it Palermo Clouds 19 1014 82 10000 13 20 02.08.2018 14:22
15 at Wien Rain 10 1018 62 10000 22 340 02.08.2018 14:22
16 ke Nairobi Rain 24 1021 60 10000 19 170 02.08.2018 14:22
17 iq Bagdad Clear 36 1011 20 10000 20 300 02.08.2018 14:22
18 cn Lhasa Clouds 14 998 15 10000 35 214 02.08.2018 14:22
19 ck Avarua Clouds 26 1016 78 10000 22 90 02.08.2018 14:22
20 es Barcelona Clouds 15 1018 63 10000 24 70 02.08.2018 14:22
21 de Torfhaus Clouds 9 1022 42 10000 3 116 02.08.2018 14:22
22 de Helgoland Clouds 8 1023 61 10000 39 320 02.08.2018 14:22
23 br Rio de Janeiro Clouds 21 1015 88 10000 7 310 02.08.2018 14:22
24 es Palma de Mallorca Clouds 17 1016 67 10000 17 60 02.08.2018 14:22
25 es Sevilla Clouds 21 1014 56 10000 4 0 02.08.2018 14:22
26 jp Tokio Clouds 14 1019 77 10000 43 60 02.08.2018 14:22
27 ru Moskau Clouds 13 1013 62 10000 22 200 02.08.2018 14:22
28 gl Nuuk Clouds 1 1008 69 10000 2 0 02.08.2018 14:22
29 ru Werchojansk Clouds -11 1021 83 10000 1 173 02.08.2018 14:22
30 fr Paris Clear 14 1023 54 10000 19 20 02.08.2018 14:22
31 bo Potisi Clear 5 1017 63 10000 5 292 02.08.2018 14:22
32 sb Honiara Clouds 26 1011 89 10000 9 121 02.08.2018 14:22
33 ca Montreal Clouds -3 1004 68 10000 4 20 02.08.2018 14:22
34 eg Kairo Clear 25 1019 38 10000 24 10 02.08.2018 14:22
35 au Darwin Clear 29 1009 74 10000 9 270 02.08.2018 14:22
36 it Rom Clear 14 1017 67 10000 7 110 02.08.2018 14:23
37 us Chicago Clouds 1 1019 75 10000 9 280 02.08.2018 14:23
38 at Innsbruck Clouds 12 1019 50 10000 11 70 02.08.2018 14:23
39 ch Bern Clouds 14 1019 55 10000 6 0 02.08.2018 14:23
40 ch Andermatt Clouds 8 1019 47 10000 20 50 02.08.2018 14:23
41 ma Marrakesch Clear 22 1014 46 10000 11 40 02.08.2018 14:23
42 ma Casablanca Clouds 19 1016 59 10000 15 340 02.08.2018 14:23
43 tr Ankara Clouds 15 1021 38 10000 13 260 02.08.2018 14:23
44 tr Istanbul Clouds 16 1023 72 10000 13 240 02.08.2018 14:23
45 et Addis Abeba Clouds 23 1026 38 10000 11 140 02.08.2018 14:23
46 ru Amderma Clouds 3 1016 80 10000 34 200 02.08.2018 14:23
47 ru Surgut Clear 6 1040 33 10000 18 200 02.08.2018 14:23
48 mn Ulaanbaatar Clouds 12 1015 28 10000 25 320 02.08.2018 14:23
49 pe Cusco Clouds 6 1021 95 10000 2 140 02.08.2018 14:23
50 cd Kisangani Clouds 31 1009 53 10000 6 103 02.08.2018 14:23
51 nz Wellington Clouds 15 1010 82 10000 19 350 02.08.2018 14:23
52 ar Ushuaia Drizzle 6 1007 87 10000 4 90 02.08.2018 14:22
53 uy Montevideo Clear 17 1018 94 10000 20 50 02.08.2018 14:22
54 ru Jakutsk Clear -2 1023 40 10000 11 280 02.08.2018 14:22
55 es Madrid Clouds 13 1014 77 10000 4 0 02.08.2018 14:23
56 us Miami Clouds 22 1016 73 10000 9 330 02.08.2018 14:23
57 us Nome Clear 3 1024 52 10000 15 40 02.08.2018 14:23
58 us Fairbanks Clear -1 1027 55 10000 6 27 02.08.2018 14:23
59 cn Peking Clouds 15 999 65 10000 10 124 02.08.2018 14:23
60 mv Male Clouds 32 1010 70 10000 19 260 02.08.2018 14:23
61 no Oslo Clear 8 1011 37 10000 10 312 02.08.2018 14:23
62 se Stockholm Rain 2 1003 87 10000 22 330 02.08.2018 14:23
63 ru Anadyr Clear -10 1025 92 10000 14 360 02.08.2018 14:23
64 qa Doha Clear 37 1011 14 10000 15 110 02.08.2018 14:23
65 mn Uliastai Clouds 3 1016 89 10000 4 273 02.08.2018 14:23
66 ar Buenos Aires Clouds 19 1016 82 10000 19 20 02.08.2018 14:22
67 ae Dubai Clear 38 1010 12 10000 20 320 02.08.2018 14:21
68 do Santo Domingo Clouds 23 1015 88 10000 7 360 02.08.2018 14:21
69 es Tarifa Clouds 18 1015 77 10000 15 220 02.08.2018 14:21
70 de Braunschweig Clouds 10 1021 57 10000 26 300 02.08.2018 14:21
71 de Köln Clouds 9 1025 49 10000 11 350 02.08.2018 14:21
72 fr Bordeaux Clear 19 1016 48 10000 22 120 02.08.2018 14:21
73 ph Manila Clouds 29 1004 74 10000 24 240 02.08.2018 14:21
74 de Berlin Clouds 11 1018 53 10000 32 280 02.08.2018 14:21
75 fj Suva Clouds 25 1013 88 10000 6 220 02.08.2018 14:21
76 au Alice Springs Clear 18 1020 29 10000 13 140 02.08.2018 14:21
77 de Hamburg Clouds 9 1020 57 10000 33 290 02.08.2018 14:21
78 de München Clouds 12 1018 66 10000 5 316 02.08.2018 14:21
79 de Trier Clear 9 1023 46 10000 15 90 02.08.2018 14:21
80 mg Antananarivo Clouds 23 1021 60 10000 20 100 02.08.2018 14:21
81 br Manaus Clouds 25 1011 94 10000 6 40 02.08.2018 14:21
82 th Bangkok Clouds 32 1004 64 10000 15 194 02.08.2018 14:21
83 af Kabul Clear 18 1019 20 10000 28 10 02.08.2018 14:21
84 sa Riad Clear 39 1014 6 10000 6 0 02.08.2018 14:21
85 es Las Palmas de Gran Canaria Clouds 22 1017 56 10000 22 40 02.08.2018 14:21
86 ie Dublin Clouds 13 1026 62 10000 17 140 02.08.2018 14:21
87 mx Mexiko Stadt Clouds 13 1026 71 10000 9 60 02.08.2018 14:21
88 fi Helsinki Clouds 10 1003 50 10000 19 200 02.08.2018 14:21
89 ua Kiew Clouds 16 1015 47 10000 18 200 02.08.2018 14:21
90 de Kassel Clouds 8 1023 53 10000 26 310 02.08.2018 14:21
91 us Las Vegas Clear 16 1006 31 10000 14 290 02.08.2018 14:21
92 us Tucson Clear 16 1011 19 10000 6 0 02.08.2018 14:21
93 mx Veracruz Clouds 23 1012 60 10000 6 334 02.08.2018 14:21
94 de Nürnberg Clear 11 1022 43 10000 19 310 02.08.2018 14:21
95 de Hannover Clouds 10 1023 57 10000 30 300 02.08.2018 14:21
96 us Denver Clouds -2 1005 90 10000 8 342 02.08.2018 14:21
97 jp Nagasaki Clear 20 1016 49 10000 9 360 02.08.2018 14:21
98 bg Warna Clouds 17 1020 42 10000 22 120 02.08.2018 14:21
99 de Frankfurt Clear 9 1024 46 10000 11 40 02.08.2018 14:22
100 de Bremen Clouds 10 1023 53 10000 32 330 02.08.2018 14:22
101 us Honolulu Clouds 23 1019 64 10000 6 10 02.08.2018 14:22
102 bs Nassau Clear 22 1016 100 10000 4 0 02.08.2018 14:22
103 de Stuttgart Clouds 12 1022 58 10000 9 10 02.08.2018 14:22
104 ec San Cristobal Clouds 25 1010 85 10000 9 91 02.08.2018 14:22
105 bo La Paz Clouds 5 1036 70 10000 7 340 02.08.2018 14:22
106 de Magdeburg Clouds 11 1021 53 10000 3 264 02.08.2018 14:22
107 tr Alanya Clear 26 1020 8 10000 17 320 02.08.2018 14:22
108 us Los Angeles Clouds 13 1013 67 10000 5 225 02.08.2018 14:22
109 gb London Clouds 11 1028 57 10000 19 70 02.08.2018 14:22
110 au Sydney Clear 13 1015 41 10000 22 270 02.08.2018 14:22
111 us New York Clouds 2 1009 65 10000 15 270 02.08.2018 14:22
112 de Dresden Clouds 8 1020 49 10000 24 310 02.08.2018 14:22
113 de Freiburg Clouds 14 1018 70 10000 13 360 02.08.2018 14:22
114 ad Andorra la Vella Clouds 9 1016 58 10000 9 0 02.08.2018 14:22
115 bg Sofia Clouds 17 1020 34 10000 7 0 02.08.2018 14:21
116 fi Rovaniemi Clear 6 1000 49 10000 7 20 02.08.2018 14:21
117 gb Glasgow Clouds 11 1027 58 10000 17 230 02.08.2018 14:21
118 gb Manchester Clouds 12 1028 46 10000 6 0 02.08.2018 14:21
119 de Flensburg Clouds 9 1019 61 10000 56 320 02.08.2018 14:21
120 de Hiddensee Clear 10 1018 53 10000 32 303 02.08.2018 14:21
121 de Emden Clouds 9 1025 65 10000 13 253 02.08.2018 14:21
122 it Mailand Clouds 17 1020 63 10000 4 0 02.08.2018 14:21
123 pg Port Moresby Rain 28 1009 83 10000 7 170 02.08.2018 14:21
124 au Perth Clear 21 1020 43 10000 9 160 02.08.2018 14:21
125 vn Hanoi Clouds 30 1004 74 10000 22 110 02.08.2018 14:21
126 cn Shanghai Rain 20 1010 88 10000 14 160 02.08.2018 14:21
127 kr Seoul Clouds 23 1017 32 10000 6 260 02.08.2018 14:21
128 fr Nizza Clouds 16 1019 72 10000 19 100 02.08.2018 14:22